| Date | Time | Temp. (oF) | Dew Point (oF) | Rel. Hum. (%) | Press. (in.) | Wind Dir. | Wind Speed (mph) | Hourly Rainfall (in.) |
|
|---|---|---|---|---|---|---|---|---|---|
| 1 | 12/16 | 00:00 | 28 | 24 | 86 | 30.17 | SW | 4 | 0.00 |
| 2 | 12/15 | 23:00 | 29 | 25 | 85 | 30.16 | SW | 3 | 0.00 |
| 3 | 12/15 | 22:00 | 30 | 26 | 85 | 30.17 | SW | 4 | 0.00 |
| 4 | 12/15 | 21:00 | 31 | 26 | 82 | 30.15 | SW | 3 | 0.00 |
| 5 | 12/15 | 20:00 | 32 | 26 | 79 | 30.13 | WSW | 6 | 0.00 |
| 6 | 12/15 | 19:00 | 32 | 25 | 78 | 30.13 | WNW | 5 | 0.00 |
| 7 | 12/15 | 18:00 | 34 | 26 | 74 | 30.08 | WNW | 6 | 0.00 |
| 8 | 12/15 | 17:00 | 35 | 26 | 72 | 30.05 | WSW | 7 | 0.00 |
| 9 | 12/15 | 16:00 | 37 | 28 | 70 | 30.01 | WNW | 15 | 0.00 |
| 10 | 12/15 | 15:00 | 38 | 29 | 70 | 29.97 | WSW | 8 | 0.00 |
| 11 | 12/15 | 14:00 | 37 | 29 | 74 | 29.97 | W | 16 | 0.00 |
| 12 | 12/15 | 13:00 | 36 | 30 | 79 | 29.94 | WNW | 10 | 0.00 |
| 13 | 12/15 | 12:00 | 36 | 29 | 76 | 29.92 | WNW | 15 | 0.00 |
| 14 | 12/15 | 11:00 | 35 | 30 | 85 | 29.92 | W | 15 | 0.00 |
| 15 | 12/15 | 10:00 | 35 | 31 | 87 | 29.90 | WNW | 14 | 0.00 |
| 16 | 12/15 | 09:00 | 34 | 31 | 89 | 29.86 | W | 11 | 0.00 |
| 17 | 12/15 | 08:00 | 33 | 30 | 92 | 29.83 | WNW | 5 | 0.00 |
| 18 | 12/15 | 07:00 | 32 | 30 | 93 | 29.79 | WNW | 9 | 0.00 |
| 19 | 12/15 | 06:00 | 31 | 29 | 93 | 29.75 | NW | 8 | 0.00 |
| 20 | 12/15 | 05:00 | 31 | 29 | 96 | 29.71 | W | 8 | 0.00 |
| 21 | 12/15 | 04:00 | 29 | 28 | 99 | 29.68 | W | 6 | 0.00 |
| 22 | 12/15 | 03:00 | 29 | 28 | 100 | 29.68 | NW | 7 | 0.00 |
| 23 | 12/15 | 02:00 | 29 | 28 | 100 | 29.66 | NW | 9 | 0.00 |
| 24 | 12/15 | 01:00 | 30 | 30 | 100 | 29.65 | NW | 9 | 0.01 |